Time,TemperatureF,DewpointF,PressureIn,WindDirection,WindDirectionDegrees,WindSpeedMPH,WindSpeedGustMPH,Humidity,HourlyPrecipIn,Conditions,Clouds,dailyrainin,SoftwareType,DateUTC
2013-05-03 00:03:00,56.0,45.0,30.26,NE,46,0.0,2.0,67,0.00,,,0.00,,2013-05-03 04:03:00,
2013-05-03 00:13:00,56.0,45.0,30.26,NE,46,0.0,2.0,67,0.00,,,0.00,,2013-05-03 04:13:00,
2013-05-03 00:23:00,55.0,46.0,30.26,WNW,289,0.0,1.0,71,0.00,,,0.00,,2013-05-03 04:23:00,
2013-05-03 00:32:00,54.0,46.0,30.26,WNW,289,0.0,1.0,75,0.00,,,0.00,,2013-05-03 04:32:00,
2013-05-03 00:43:00,54.0,46.0,30.26,WNW,289,0.0,1.0,75,0.00,,,0.00,,2013-05-03 04:43:00,
2013-05-03 00:53:00,53.0,47.0,30.26,SE,143,0.0,2.0,79,0.00,,,0.00,,2013-05-03 04:53:00,
2013-05-03 01:02:00,53.0,45.0,30.26,SSE,165,0.0,1.0,75,0.00,,,0.00,,2013-05-03 05:02:00,
2013-05-03 01:12:00,53.0,45.0,30.26,SSE,165,0.0,1.0,75,0.00,,,0.00,,2013-05-03 05:12:00,
2013-05-03 01:22:00,51.0,45.0,30.26,SSE,164,0.0,0.0,80,0.00,,,0.00,,2013-05-03 05:22:00,
2013-05-03 01:32:00,51.0,46.0,30.26,SSE,164,0.0,1.0,82,0.00,,,0.00,,2013-05-03 05:32:00,
2013-05-03 01:42:00,51.0,46.0,30.26,SSE,164,0.0,1.0,82,0.00,,,0.00,,2013-05-03 05:42:00,
2013-05-03 01:52:00,50.0,45.0,30.26,SSE,164,0.0,0.0,83,0.00,,,0.00,,2013-05-03 05:52:00,
2013-05-03 02:02:00,50.0,45.0,30.26,SSE,164,0.0,0.0,84,0.00,,,0.00,,2013-05-03 06:02:00,
2013-05-03 02:12:00,50.0,45.0,30.26,SSE,164,0.0,0.0,84,0.00,,,0.00,,2013-05-03 06:12:00,
2013-05-03 02:21:00,50.0,44.0,30.25,SSE,164,0.0,0.0,79,0.00,,,0.00,,2013-05-03 06:21:00,
2013-05-03 02:32:00,52.0,44.0,30.25,WSW,252,0.0,2.0,75,0.00,,,0.00,,2013-05-03 06:32:00,
2013-05-03 02:42:00,52.0,44.0,30.25,WSW,252,0.0,2.0,75,0.00,,,0.00,,2013-05-03 06:42:00,
2013-05-03 02:52:00,51.0,45.0,30.25,WSW,252,0.0,1.0,80,0.00,,,0.00,,2013-05-03 06:52:00,
2013-05-03 03:01:00,50.0,45.0,30.25,SW,231,0.0,1.0,84,0.00,,,0.00,,2013-05-03 07:01:00,
2013-05-03 03:11:00,50.0,45.0,30.25,SW,231,0.0,1.0,84,0.00,,,0.00,,2013-05-03 07:11:00,
2013-05-03 03:22:00,49.0,45.0,30.25,SW,231,0.0,1.0,85,0.00,,,0.00,,2013-05-03 07:22:00,
2013-05-03 03:32:00,49.0,45.0,30.25,SW,231,0.0,1.0,86,0.00,,,0.00,,2013-05-03 07:32:00,
2013-05-03 03:42:00,49.0,45.0,30.25,SW,231,0.0,1.0,86,0.00,,,0.00,,2013-05-03 07:42:00,
2013-05-03 03:52:00,50.0,43.0,30.25,NNE,15,0.0,1.0,77,0.00,,,0.00,,2013-05-03 07:52:00,
2013-05-03 04:02:00,49.0,43.0,30.25,NNE,15,0.0,1.0,79,0.00,,,0.00,,2013-05-03 08:02:00,
2013-05-03 04:12:00,49.0,43.0,30.25,NNE,15,0.0,1.0,79,0.00,,,0.00,,2013-05-03 08:12:00,
2013-05-03 04:21:00,49.0,42.0,30.25,NNE,15,0.0,0.0,78,0.00,,,0.00,,2013-05-03 08:21:00,
2013-05-03 04:32:00,50.0,42.0,30.26,NNE,15,0.0,1.0,74,0.00,,,0.00,,2013-05-03 08:32:00,
2013-05-03 04:42:00,50.0,42.0,30.26,NNE,15,0.0,1.0,74,0.00,,,0.00,,2013-05-03 08:42:00,
2013-05-03 04:53:00,49.0,43.0,30.26,SE,144,0.0,3.0,81,0.00,,,0.00,,2013-05-03 08:53:00,
2013-05-03 05:01:00,48.0,44.0,30.26,SSE,154,1.0,2.0,85,0.00,,,0.00,,2013-05-03 09:01:00,
2013-05-03 05:12:00,48.0,44.0,30.26,SSE,154,1.0,2.0,85,0.00,,,0.00,,2013-05-03 09:12:00,
2013-05-03 05:21:00,48.0,43.0,30.27,SSE,153,0.0,0.0,84,0.00,,,0.00,,2013-05-03 09:21:00,
2013-05-03 05:32:00,48.0,43.0,30.27,SSE,153,0.0,0.0,83,0.00,,,0.00,,2013-05-03 09:32:00,
2013-05-03 05:42:00,48.0,43.0,30.27,SSE,153,0.0,0.0,83,0.00,,,0.00,,2013-05-03 09:42:00,
2013-05-03 05:53:00,48.0,44.0,30.27,SSE,153,0.0,0.0,85,0.00,,,0.00,,2013-05-03 09:53:00,
2013-05-03 06:03:00,48.0,43.0,30.27,SE,138,0.0,2.0,84,0.00,,,0.00,,2013-05-03 10:03:00,
2013-05-03 06:13:00,48.0,43.0,30.27,SE,138,0.0,2.0,84,0.00,,,0.00,,2013-05-03 10:13:00,
2013-05-03 06:22:00,49.0,43.0,30.28,SE,146,3.0,5.0,81,0.00,,,0.00,,2013-05-03 10:22:00,
2013-05-03 06:32:00,51.0,45.0,30.29,SSE,160,4.0,7.0,79,0.00,,,0.00,,2013-05-03 10:32:00,
2013-05-03 06:42:00,51.0,45.0,30.29,SSE,160,4.0,7.0,79,0.00,,,0.00,,2013-05-03 10:42:00,
2013-05-03 06:52:00,51.0,44.0,30.29,SE,141,5.0,10.0,77,0.00,,,0.00,,2013-05-03 10:52:00,
2013-05-03 07:02:00,51.0,44.0,30.29,SSE,158,2.0,6.0,77,0.00,,,0.00,,2013-05-03 11:02:00,
2013-05-03 07:11:00,51.0,44.0,30.29,SSE,158,2.0,6.0,77,0.00,,,0.00,,2013-05-03 11:11:00,
2013-05-03 07:22:00,52.0,45.0,30.29,SSE,163,2.0,4.0,77,0.00,,,0.00,,2013-05-03 11:22:00,
2013-05-03 07:32:00,53.0,45.0,30.30,SE,137,4.0,6.0,75,0.00,,,0.00,,2013-05-03 11:32:00,
2013-05-03 07:42:00,53.0,45.0,30.30,SE,137,4.0,6.0,75,0.00,,,0.00,,2013-05-03 11:42:00,
2013-05-03 07:52:00,55.0,46.0,30.30,SE,141,3.0,3.0,72,0.00,,,0.00,,2013-05-03 11:52:00,
2013-05-03 08:02:00,56.0,46.0,30.30,SSE,150,4.0,6.0,69,0.00,,,0.00,,2013-05-03 12:02:00,
2013-05-03 08:12:00,56.0,46.0,30.30,SSE,150,4.0,6.0,69,0.00,,,0.00,,2013-05-03 12:12:00,
2013-05-03 08:22:00,59.0,47.0,30.30,South,173,5.0,8.0,64,0.00,,,0.00,,2013-05-03 12:22:00,
2013-05-03 08:32:00,61.0,47.0,30.30,SE,141,4.0,6.0,60,0.00,,,0.00,,2013-05-03 12:32:00,
2013-05-03 08:42:00,61.0,47.0,30.30,SE,141,4.0,6.0,60,0.00,,,0.00,,2013-05-03 12:42:00,
2013-05-03 08:52:00,64.0,46.0,30.30,South,174,7.0,11.0,52,0.00,,,0.00,,2013-05-03 12:52:00,
2013-05-03 09:01:00,65.0,46.0,30.30,SSE,155,6.0,12.0,50,0.00,,,0.00,,2013-05-03 13:01:00,
2013-05-03 09:11:00,65.0,46.0,30.30,SSE,155,6.0,12.0,50,0.00,,,0.00,,2013-05-03 13:11:00,
2013-05-03 09:22:00,66.0,46.0,30.30,SSE,158,8.0,13.0,49,0.00,,,0.00,,2013-05-03 13:22:00,
2013-05-03 09:32:00,67.0,48.0,30.30,SSE,158,8.0,13.0,50,0.00,,,0.00,,2013-05-03 13:32:00,
2013-05-03 09:42:00,67.0,48.0,30.30,SSE,158,8.0,13.0,50,0.00,,,0.00,,2013-05-03 13:42:00,
2013-05-03 09:52:00,66.0,47.0,30.30,ESE,121,8.0,13.0,51,0.00,,,0.00,,2013-05-03 13:52:00,
2013-05-03 10:02:00,66.0,48.0,30.30,ESE,116,7.0,12.0,52,0.00,,,0.00,,2013-05-03 14:02:00,
2013-05-03 10:11:00,66.0,48.0,30.30,ESE,116,7.0,12.0,52,0.00,,,0.00,,2013-05-03 14:11:00,
2013-05-03 10:22:00,67.0,47.0,30.30,SSE,164,9.0,14.0,49,0.00,,,0.00,,2013-05-03 14:22:00,
2013-05-03 10:32:00,68.0,48.0,30.30,SE,135,7.0,12.0,48,0.00,,,0.00,,2013-05-03 14:32:00,
2013-05-03 10:42:00,68.0,48.0,30.30,SE,135,7.0,12.0,48,0.00,,,0.00,,2013-05-03 14:42:00,
2013-05-03 10:52:00,67.0,48.0,30.30,ESE,108,11.0,16.0,51,0.00,,,0.00,,2013-05-03 14:52:00,
2013-05-03 11:01:00,66.0,47.0,30.30,ESE,117,10.0,15.0,51,0.00,,,0.00,,2013-05-03 15:01:00,
2013-05-03 11:11:00,66.0,47.0,30.30,ESE,117,10.0,15.0,51,0.00,,,0.00,,2013-05-03 15:11:00,
2013-05-03 11:22:00,67.0,47.0,30.30,SE,135,9.0,14.0,48,0.00,,,0.00,,2013-05-03 15:22:00,
2013-05-03 11:32:00,67.0,47.0,30.30,SSE,153,8.0,16.0,48,0.00,,,0.00,,2013-05-03 15:32:00,
2013-05-03 11:43:00,67.0,47.0,30.30,SSE,153,8.0,16.0,48,0.00,,,0.00,,2013-05-03 15:43:00,
2013-05-03 11:53:00,68.0,46.0,30.30,SE,140,11.0,14.0,45,0.00,,,0.00,,2013-05-03 15:53:00,
2013-05-03 12:03:00,68.0,47.0,30.30,SSE,167,9.0,16.0,47,0.00,,,0.00,,2013-05-03 16:03:00,
2013-05-03 12:13:00,68.0,47.0,30.30,SSE,167,9.0,16.0,47,0.00,,,0.00,,2013-05-03 16:13:00,
2013-05-03 12:23:00,70.0,48.0,30.29,SSE,148,10.0,14.0,45,0.00,,,0.00,,2013-05-03 16:23:00,
2013-05-03 12:33:00,69.0,48.0,30.29,ESE,105,11.0,15.0,47,0.00,,,0.00,,2013-05-03 16:33:00,
2013-05-03 12:42:00,69.0,48.0,30.29,ESE,105,11.0,15.0,47,0.00,,,0.00,,2013-05-03 16:42:00,
2013-05-03 12:52:00,70.0,46.0,30.29,SE,136,10.0,14.0,42,0.00,,,0.00,,2013-05-03 16:52:00,
2013-05-03 13:02:00,70.0,46.0,30.29,SE,136,10.0,14.0,42,0.00,,,0.00,,2013-05-03 17:02:00,
2013-05-03 13:12:00,70.0,46.0,30.29,SE,136,10.0,14.0,42,0.00,,,0.00,,2013-05-03 17:12:00,
2013-05-03 13:23:00,71.0,47.0,30.28,SSE,155,7.0,15.0,42,0.00,,,0.00,,2013-05-03 17:23:00,
2013-05-03 13:32:00,72.0,48.0,30.28,ESE,103,9.0,12.0,43,0.00,,,0.00,,2013-05-03 17:32:00,
2013-05-03 13:42:00,72.0,48.0,30.28,ESE,103,9.0,12.0,43,0.00,,,0.00,,2013-05-03 17:42:00,
2013-05-03 13:52:00,72.0,46.0,30.27,SE,139,8.0,11.0,39,0.00,,,0.00,,2013-05-03 17:52:00,
2013-05-03 14:01:00,73.0,45.0,30.27,SSE,162,7.0,12.0,37,0.00,,,0.00,,2013-05-03 18:01:00,
2013-05-03 14:12:00,73.0,45.0,30.27,SSE,162,7.0,12.0,37,0.00,,,0.00,,2013-05-03 18:12:00,
2013-05-03 14:22:00,73.0,46.0,30.27,ESE,115,6.0,16.0,38,0.00,,,0.00,,2013-05-03 18:22:00,
2013-05-03 14:32:00,72.0,49.0,30.27,SSE,159,8.0,12.0,44,0.00,,,0.00,,2013-05-03 18:32:00,
2013-05-03 14:42:00,72.0,49.0,30.27,SSE,159,8.0,12.0,44,0.00,,,0.00,,2013-05-03 18:42:00,
2013-05-03 14:52:00,74.0,46.0,30.26,SE,142,6.0,14.0,37,0.00,,,0.00,,2013-05-03 18:52:00,
2013-05-03 15:01:00,73.0,48.0,30.26,South,174,5.0,12.0,41,0.00,,,0.00,,2013-05-03 19:01:00,
2013-05-03 15:11:00,73.0,48.0,30.26,South,174,5.0,12.0,41,0.00,,,0.00,,2013-05-03 19:11:00,
2013-05-03 15:21:00,74.0,50.0,30.25,SSE,162,9.0,13.0,43,0.00,,,0.00,,2013-05-03 19:21:00,
2013-05-03 15:32:00,73.0,47.0,30.24,SSE,156,4.0,13.0,39,0.00,,,0.00,,2013-05-03 19:32:00,
2013-05-03 15:42:00,73.0,47.0,30.24,SSE,156,4.0,13.0,39,0.00,,,0.00,,2013-05-03 19:42:00,
2013-05-03 15:52:00,74.0,49.0,30.24,SSE,153,8.0,14.0,41,0.00,,,0.00,,2013-05-03 19:52:00,
2013-05-03 16:02:00,74.0,45.0,30.24,South,171,5.0,9.0,36,0.00,,,0.00,,2013-05-03 20:02:00,
2013-05-03 16:12:00,74.0,45.0,30.24,South,171,5.0,9.0,36,0.00,,,0.00,,2013-05-03 20:12:00,
2013-05-03 16:21:00,74.0,47.0,30.23,SE,124,8.0,16.0,38,0.00,,,0.00,,2013-05-03 20:21:00,
2013-05-03 16:32:00,74.0,45.0,30.22,ESE,103,6.0,14.0,36,0.00,,,0.00,,2013-05-03 20:32:00,
2013-05-03 16:42:00,74.0,45.0,30.22,ESE,103,6.0,14.0,36,0.00,,,0.00,,2013-05-03 20:42:00,
2013-05-03 16:52:00,74.0,49.0,30.22,ESE,120,9.0,14.0,41,0.00,,,0.00,,2013-05-03 20:52:00,
2013-05-03 17:01:00,74.0,47.0,30.22,ESE,113,9.0,16.0,39,0.00,,,0.00,,2013-05-03 21:01:00,
2013-05-03 17:11:00,74.0,47.0,30.22,ESE,113,9.0,16.0,39,0.00,,,0.00,,2013-05-03 21:11:00,
2013-05-03 17:22:00,75.0,48.0,30.22,SSE,152,9.0,13.0,38,0.00,,,0.00,,2013-05-03 21:22:00,
2013-05-03 17:33:00,75.0,47.0,30.21,SE,135,7.0,14.0,37,0.00,,,0.00,,2013-05-03 21:33:00,
2013-05-03 17:42:00,75.0,47.0,30.21,SE,135,7.0,14.0,37,0.00,,,0.00,,2013-05-03 21:42:00,
2013-05-03 17:53:00,74.0,45.0,30.21,SE,144,7.0,12.0,36,0.00,,,0.00,,2013-05-03 21:53:00,
2013-05-03 18:03:00,74.0,46.0,30.21,SE,144,6.0,11.0,37,0.00,,,0.00,,2013-05-03 22:03:00,
2013-05-03 18:13:00,74.0,46.0,30.21,SE,144,6.0,11.0,37,0.00,,,0.00,,2013-05-03 22:13:00,
2013-05-03 18:22:00,75.0,45.0,30.21,South,173,7.0,12.0,35,0.00,,,0.00,,2013-05-03 22:22:00,
2013-05-03 18:32:00,74.0,45.0,30.21,SSE,156,8.0,14.0,35,0.00,,,0.00,,2013-05-03 22:32:00,
2013-05-03 18:42:00,74.0,45.0,30.21,SSE,156,8.0,14.0,35,0.00,,,0.00,,2013-05-03 22:42:00,
2013-05-03 18:52:00,74.0,49.0,30.21,SE,128,3.0,7.0,42,0.00,,,0.00,,2013-05-03 22:52:00,
2013-05-03 19:02:00,74.0,46.0,30.21,SE,130,7.0,10.0,37,0.00,,,0.00,,2013-05-03 23:02:00,
2013-05-03 19:11:00,74.0,46.0,30.21,SE,130,7.0,10.0,37,0.00,,,0.00,,2013-05-03 23:11:00,
2013-05-03 19:22:00,73.0,45.0,30.21,SE,142,5.0,9.0,37,0.00,,,0.00,,2013-05-03 23:22:00,
2013-05-03 19:32:00,72.0,46.0,30.21,SE,129,3.0,6.0,40,0.00,,,0.00,,2013-05-03 23:32:00,
2013-05-03 19:41:00,72.0,46.0,30.21,SE,129,3.0,6.0,40,0.00,,,0.00,,2013-05-03 23:41:00,
2013-05-03 19:52:00,71.0,45.0,30.21,SE,134,3.0,8.0,40,0.00,,,0.00,,2013-05-03 23:52:00,
2013-05-03 20:01:00,71.0,46.0,30.21,SE,135,3.0,5.0,41,0.00,,,0.00,,2013-05-04 00:01:00,
2013-05-03 20:11:00,71.0,46.0,30.21,SE,135,3.0,5.0,41,0.00,,,0.00,,2013-05-04 00:11:00,
2013-05-03 20:23:00,70.0,46.0,30.21,SE,130,2.0,4.0,42,0.00,,,0.00,,2013-05-04 00:23:00,
2013-05-03 20:32:00,69.0,46.0,30.21,SE,134,1.0,3.0,44,0.00,,,0.00,,2013-05-04 00:32:00,
2013-05-03 20:42:00,69.0,46.0,30.21,SE,134,1.0,3.0,44,0.00,,,0.00,,2013-05-04 00:42:00,
2013-05-03 20:52:00,65.0,47.0,30.21,SE,137,0.0,0.0,52,0.00,,,0.00,,2013-05-04 00:52:00,
2013-05-03 21:01:00,63.0,46.0,30.22,SE,137,0.0,0.0,54,0.00,,,0.00,,2013-05-04 01:01:00,
2013-05-03 21:11:00,63.0,46.0,30.22,SE,137,0.0,0.0,54,0.00,,,0.00,,2013-05-04 01:11:00,
2013-05-03 21:21:00,61.0,47.0,30.22,NNE,31,1.0,3.0,61,0.00,,,0.00,,2013-05-04 01:21:00,
2013-05-03 21:32:00,62.0,46.0,30.23,East,88,2.0,4.0,55,0.00,,,0.00,,2013-05-04 01:32:00,
2013-05-03 21:42:00,62.0,46.0,30.23,East,88,2.0,4.0,55,0.00,,,0.00,,2013-05-04 01:42:00,
2013-05-03 21:52:00,65.0,46.0,30.23,ESE,106,2.0,6.0,50,0.00,,,0.00,,2013-05-04 01:52:00,
2013-05-03 22:02:00,63.0,47.0,30.23,ESE,102,1.0,4.0,56,0.00,,,0.00,,2013-05-04 02:02:00,
2013-05-03 22:11:00,63.0,47.0,30.23,ESE,102,1.0,4.0,56,0.00,,,0.00,,2013-05-04 02:11:00,
2013-05-03 22:21:00,61.0,46.0,30.23,SE,126,2.0,5.0,57,0.00,,,0.00,,2013-05-04 02:21:00,
2013-05-03 22:32:00,61.0,46.0,30.23,SE,126,2.0,5.0,57,0.00,,,0.00,,2013-05-04 02:32:00,
2013-05-03 22:42:00,61.0,46.0,30.23,SE,126,2.0,5.0,57,0.00,,,0.00,,2013-05-04 02:42:00,
2013-05-03 22:52:00,63.0,46.0,30.23,ESE,118,2.0,3.0,54,0.00,,,0.00,,2013-05-04 02:52:00,
2013-05-03 23:02:00,62.0,46.0,30.23,ESE,117,0.0,2.0,55,0.00,,,0.00,,2013-05-04 03:02:00,
2013-05-03 23:11:00,62.0,46.0,30.23,ESE,117,0.0,2.0,55,0.00,,,0.00,,2013-05-04 03:11:00,
2013-05-03 23:22:00,61.0,46.0,30.23,SE,144,0.0,4.0,57,0.00,,,0.00,,2013-05-04 03:22:00,
2013-05-03 23:33:00,59.0,46.0,30.23,SE,142,0.0,1.0,61,0.00,,,0.00,,2013-05-04 03:33:00,
2013-05-03 23:43:00,59.0,46.0,30.23,SE,142,0.0,1.0,61,0.00,,,0.00,,2013-05-04 03:43:00,
2013-05-03 23:53:00,57.0,45.0,30.23,ESE,113,2.0,3.0,63,0.00,,,0.00,,2013-05-04 03:53:00,